Home > Weather > St. Croix Falls > Past weeks

Flag for USA Past Weather in St. Croix Falls, Wisconsin, USA — Yesterday and Last 2 Weeks

Now
56 °F

Sunny.


Feels Like: 56 °F
Forecast: 56 / 77 °F
Wind: No wind

Location: L O Simenstad Municipal Airport

Current Time: Jul 29, 2016 at 7:17:07 AM

Latest Report: Jul 29, 2016 at 6:55 AM


Visibility: 10 mi

Pressure: 30.11 "Hg

Humidity: 100%

Dew Point: 56 °F

Location of St. Croix FallsLocation

Past Weather in St. Croix Falls — Graph

°F

St. Croix Falls Temperature Yesterday

Maximum temperature yesterday: 74 °F (at 5:35 PM)
Minimum temperature yesterday: 62 °F (at 11:55 PM)
Average temperature yesterday: 67 °F

High & Low Weather Summary for the Past Weeks

 TemperatureHumidityPressure
High92 °F (Jul 22, 3:55 PM)100% (Jul 14, 4:35 PM)30.24 "Hg (Jul 14, 4:35 PM)
Low55 °F (Jul 29, 5:55 AM)33% (Jul 22, 3:15 PM)29.79 "Hg (Jul 17, 4:35 AM)
Average72 °F79%30.02 "Hg
* Reported Jul 14 6:15 AM — Jul 29 6:15 AM, St. Croix Falls, Weather by CustomWeather, © 2016

Note: Actual official high and low records may vary slightly from our data, if they occured in-between our weather recording intervals... More about our weather records

Advertising

St. Croix Falls Weather History for the Previous 24 Hours

Scroll right to see more
 ConditionsComfort  
Time TempWeatherWind HumidityBarometerVisibility
6:15 AM
Fri, Jul 29
55 °FClear.No wind100%30.11 "Hg10 mi
5:55 AM55 °FClear.No wind100%30.10 "Hg10 mi
5:15 AM56 °FClear.No wind100%30.10 "Hg10 mi
4:55 AM56 °FPassing clouds.No wind100%30.10 "Hg10 mi
4:35 AM56 °FPassing clouds.No wind100%30.10 "Hg10 mi
4:15 AM56 °FPassing clouds.No wind100%30.09 "Hg10 mi
3:55 AM57 °FPassing clouds.No wind100%30.09 "Hg10 mi
3:35 AM57 °FPassing clouds.No wind100%30.10 "Hg10 mi
3:15 AM58 °FPassing clouds.No wind100%30.11 "Hg10 mi
2:55 AM58 °FClear.No wind100%30.11 "Hg10 mi
2:15 AM60 °FOvercast.No wind100%30.10 "Hg10 mi
1:55 AM62 °FOvercast.No wind82%30.10 "Hg10 mi
1:35 AM60 °FPassing clouds.No wind88%30.10 "Hg10 mi
1:15 AM60 °FClear.3 mph83%30.09 "Hg10 mi
12:55 AM61 °FPassing clouds.3 mph82%30.09 "Hg10 mi
12:35 AM62 °FPassing clouds.5 mph78%30.09 "Hg10 mi
12:15 AM62 °FClear.No wind79%30.09 "Hg10 mi
11:55 PM
Thu, Jul 28
62 °FClear.No wind77%30.09 "Hg10 mi
11:35 PM63 °FClear.No wind74%30.09 "Hg10 mi
11:15 PM64 °FClear.No wind73%30.08 "Hg10 mi
10:55 PM64 °FClear.No wind76%30.08 "Hg10 mi
10:35 PM63 °FClear.No wind77%30.08 "Hg10 mi
10:15 PM64 °FClear.3 mph76%30.07 "Hg10 mi
9:55 PM63 °FClear.3 mph81%30.07 "Hg10 mi
9:15 PM66 °FSunny.7 mph72%30.07 "Hg10 mi
8:55 PM67 °FScattered clouds.7 mph70%30.07 "Hg10 mi
8:15 PM69 °FOvercast.8 mph65%30.06 "Hg10 mi
7:55 PM70 °FOvercast.6 mph65%30.06 "Hg10 mi
7:35 PM71 °FOvercast.6 mph61%30.07 "Hg10 mi
7:15 PM71 °FOvercast.5 mph64%30.06 "Hg10 mi
6:55 PM72 °FOvercast.6 mph62%30.06 "Hg10 mi
6:35 PM72 °FScattered clouds.8 mph58%30.06 "Hg10 mi
6:15 PM74 °FScattered clouds.10 mph54%30.05 "Hg10 mi
5:55 PM74 °FSunny.10 mph55%30.05 "Hg10 mi
5:35 PM74 °FSunny.12 mph52%30.05 "Hg10 mi
5:15 PM72 °FScattered clouds.10 mph59%30.04 "Hg10 mi
4:55 PM72 °FPartly sunny.8 mph62%30.04 "Hg10 mi
4:35 PM73 °FMore clouds than sun.10 mph62%30.05 "Hg10 mi
4:15 PM73 °FOvercast.8 mph62%30.05 "Hg10 mi
3:55 PM73 °FPartly sunny.10 mph62%30.06 "Hg10 mi
3:35 PM73 °FScattered clouds.13 mph61%30.06 "Hg10 mi
3:15 PM73 °FScattered clouds.13 mph60%30.05 "Hg10 mi
2:55 PM72 °FMore clouds than sun.13 mph62%30.05 "Hg10 mi
2:15 PM73 °FMore clouds than sun.10 mph62%30.06 "Hg10 mi
1:55 PM73 °FMore clouds than sun.10 mph64%30.06 "Hg10 mi
1:35 PM72 °FPartly sunny.13 mph64%30.06 "Hg10 mi
1:15 PM72 °FScattered clouds.10 mph66%30.06 "Hg10 mi
12:55 PM69 °FOvercast.12 mph70%30.07 "Hg10 mi
12:15 PM69 °FOvercast.10 mph77%30.07 "Hg10 mi
11:55 AM68 °FMore clouds than sun.8 mph88%30.08 "Hg10 mi
11:15 AM68 °FMore clouds than sun.8 mph96%30.08 "Hg10 mi
10:55 AM67 °FMore clouds than sun.7 mph99%30.07 "Hg10 mi
10:35 AM67 °FMore clouds than sun.7 mph98%30.07 "Hg10 mi
10:15 AM67 °FMore clouds than sun.5 mph98%30.06 "Hg10 mi
9:55 AM67 °FOvercast.5 mph100%30.06 "Hg10 mi
9:35 AM66 °FMostly cloudy.6 mph100%30.06 "Hg10 mi
9:15 AM66 °FOvercast.3 mph100%30.06 "Hg10 mi
8:55 AM66 °FOvercast.6 mph100%30.06 "Hg10 mi
8:15 AM66 °FOvercast.8 mph100%30.05 "Hg10 mi
7:55 AM65 °FOvercast.5 mph100%30.05 "Hg10 mi
7:15 AM64 °FLow clouds.7 mph100%30.04 "Hg10 mi
Weather by CustomWeather, © 2016

See weather overviewHow to use our weather pages